When you browse on this site, cookies collect data to enhance your experience and personalize the content and advertising you see.
Visit our Privacy Policy to learn more. By continuing to use the site, you agree to this use of cookies and data.
  • în România
  • Lista ţărilor
  • Pe 7 zile
  • Temperatura apei
  • Hartă satelitară
  • Meteo pe hartă
  • Widget-uri
  • user-avatar
    Intrare

    Meteo pe oră la Seram

    Astăzi, 22 Aprilie, Luni

    Timp Temperatura Precipitaţii Vânt Presiune Umiditate
    00:00 +37°C° 0 mm 3 m/s 719 mmHg 21%
    01:00 +37°C° 0 mm 3 m/s 719 mmHg 22%
    02:00 +36°C° 0 mm 2 m/s 718 mmHg 23%
    03:00 +36°C° 0 mm 3 m/s 719 mmHg 22%
    04:00 +36°C° 0 mm 4 m/s 719 mmHg 21%
    05:00 +35°C° 0 mm 4 m/s 719 mmHg 26%
    06:00 +36°C° 0 mm 5 m/s 720 mmHg 22%
    07:00 +39°C° 0 mm 6 m/s 720 mmHg 18%
    08:00 +40°C° 0 mm 7 m/s 721 mmHg 14%
    09:00 +41°C° 0 mm 6 m/s 721 mmHg 14%
    10:00 +42°C° 0 mm 5 m/s 720 mmHg 14%
    11:00 +43°C° 0 mm 5 m/s 721 mmHg 14%
    12:00 +42°C° 0 mm 5 m/s 720 mmHg 15%
    13:00 +42°C° 0 mm 5 m/s 720 mmHg 16%
    14:00 +42°C° 0 mm 5 m/s 719 mmHg 17%
    15:00 +42°C° 0 mm 5 m/s 719 mmHg 18%
    16:00 +42°C° 0 mm 5 m/s 719 mmHg 18%
    17:00 +41°C° 0 mm 4 m/s 718 mmHg 19%
    18:00 +41°C° 0 mm 4 m/s 719 mmHg 19%
    19:00 +39°C° 0 mm 3 m/s 719 mmHg 19%
    20:00 +38°C° 0 mm 2 m/s 719 mmHg 20%
    21:00 +38°C° 0 mm 2 m/s 719 mmHg 21%
    22:00 +37°C° 0 mm 3 m/s 720 mmHg 22%
    23:00 +36°C° 0 mm 3 m/s 720 mmHg 23%

    Mâine, 23 Aprilie, Marţi

    Timp Temperatura Precipitaţii Vânt Presiune Umiditate
    00:00 +36°C° 0 mm 3 m/s 720 mmHg 25%
    01:00 +35°C° 0 mm 3 m/s 720 mmHg 27%
    02:00 +35°C° 0 mm 3 m/s 720 mmHg 29%
    03:00 +34°C° 0 mm 3 m/s 720 mmHg 34%
    04:00 +34°C° 0 mm 4 m/s 720 mmHg 39%
    05:00 +33°C° 0 mm 4 m/s 720 mmHg 44%
    06:00 +34°C° 0 mm 5 m/s 721 mmHg 43%
    07:00 +35°C° 0 mm 5 m/s 721 mmHg 42%
    08:00 +36°C° 0 mm 5 m/s 722 mmHg 41%
    09:00 +37°C° 0 mm 4 m/s 722 mmHg 35%
    10:00 +40°C° 0 mm 4 m/s 722 mmHg 29%
    11:00 +40°C° 0 mm 3 m/s 722 mmHg 23%
    12:00 +40°C° 0 mm 2 m/s 721 mmHg 22%
    13:00 +40°C° 0 mm 2 m/s 721 mmHg 21%
    14:00 +40°C° 0 mm 2 m/s 720 mmHg 20%
    15:00 +40°C° 0 mm 2 m/s 720 mmHg 19%
    16:00 +40°C° 0 mm 2 m/s 720 mmHg 17%
    17:00 +41°C° 0 mm 2 m/s 720 mmHg 16%
    18:00 +40°C° 0 mm 2 m/s 720 mmHg 19%
    19:00 +39°C° 0 mm 2 m/s 720 mmHg 21%
    20:00 +38°C° 0 mm 3 m/s 721 mmHg 24%
    21:00 +37°C° 0 mm 2 m/s 721 mmHg 26%
    22:00 +35°C° 0 mm 1 m/s 721 mmHg 27%
    23:00 +35°C° 0 mm 1 m/s 721 mmHg 29%

    Poimâine, 24 Aprilie, Miercuri

    Timp Temperatura Precipitaţii Vânt Presiune Umiditate
    00:00 +36°C° 0 mm 2 m/s 721 mmHg 28%
    01:00 +35°C° 0 mm 2 m/s 721 mmHg 28%
    02:00 +35°C° 0 mm 3 m/s 720 mmHg 27%
    03:00 +35°C° 0 mm 3 m/s 720 mmHg 30%
    04:00 +34°C° 0 mm 4 m/s 721 mmHg 33%
    05:00 +33°C° 0 mm 4 m/s 721 mmHg 36%
    06:00 +35°C° 0 mm 4 m/s 721 mmHg 34%
    07:00 +36°C° 0 mm 4 m/s 722 mmHg 31%
    08:00 +37°C° 0 mm 4 m/s 723 mmHg 29%
    09:00 +38°C° 0 mm 4 m/s 723 mmHg 26%
    10:00 +40°C° 0 mm 3 m/s 723 mmHg 23%
    11:00 +42°C° 0 mm 3 m/s 722 mmHg 19%
    12:00 +41°C° 0 mm 2 m/s 722 mmHg 18%
    13:00 +41°C° 0 mm 1 m/s 721 mmHg 16%
    14:00 +39°C° 0 mm 0 m/s 720 mmHg 15%
    15:00 +41°C° 0 mm 1 m/s 720 mmHg 15%
    16:00 +41°C° 0 mm 1 m/s 719 mmHg 15%
    17:00 +41°C° 0 mm 1 m/s 719 mmHg 16%
    18:00 +40°C° 0 mm 1 m/s 719 mmHg 17%
    19:00 +39°C° 0 mm 1 m/s 720 mmHg 17%
    20:00 +39°C° 0 mm 2 m/s 720 mmHg 18%
    21:00 +39°C° 0 mm 1 m/s 720 mmHg 19%
    22:00 +37°C° 0 mm 1 m/s 721 mmHg 19%
    23:00 +37°C° 0 mm 1 m/s 721 mmHg 19%

    25 Aprilie, Joi

    Timp Temperatura Precipitaţii Vânt Presiune Umiditate
    00:00 +37°C° 0 mm 2 m/s 720 mmHg 21%
    01:00 +36°C° 0 mm 3 m/s 720 mmHg 24%
    02:00 +35°C° 0 mm 5 m/s 720 mmHg 26%
    03:00 +35°C° 0 mm 4 m/s 720 mmHg 28%
    04:00 +34°C° 0 mm 4 m/s 720 mmHg 29%
    05:00 +34°C° 0 mm 4 m/s 720 mmHg 30%
    06:00 +35°C° 0 mm 4 m/s 721 mmHg 27%
    07:00 +37°C° 0 mm 4 m/s 722 mmHg 24%
    08:00 +39°C° 0 mm 5 m/s 722 mmHg 21%
    09:00 +40°C° 0 mm 4 m/s 722 mmHg 19%
    10:00 +42°C° 0 mm 4 m/s 722 mmHg 17%
    11:00 +43°C° 0 mm 4 m/s 722 mmHg 15%
    12:00 +44°C° 0 mm 3 m/s 721 mmHg 13%
    13:00 +45°C° 0 mm 2 m/s 721 mmHg 12%
    14:00 +44°C° 0 mm 1 m/s 720 mmHg 11%
    15:00 +44°C° 0 mm 1 m/s 719 mmHg 11%
    16:00 +44°C° 0 mm 1 m/s 719 mmHg 11%
    17:00 +45°C° 0 mm 2 m/s 719 mmHg 11%
    18:00 +43°C° 0 mm 2 m/s 719 mmHg 11%
    19:00 +44°C° 0 mm 3 m/s 720 mmHg 12%
    20:00 +43°C° 0 mm 3 m/s 720 mmHg 13%
    21:00 +42°C° 0 mm 3 m/s 720 mmHg 14%
    22:00 +41°C° 0 mm 2 m/s 720 mmHg 14%
    23:00 +40°C° 0 mm 2 m/s 720 mmHg 15%

    26 Aprilie, Vineri

    Timp Temperatura Precipitaţii Vânt Presiune Umiditate
    00:00 +40°C° 0 mm 4 m/s 720 mmHg 19%
    01:00 +39°C° 0 mm 5 m/s 719 mmHg 23%
    02:00 +38°C° 0 mm 6 m/s 718 mmHg 26%
    03:00 +36°C° 0 mm 6 m/s 719 mmHg 27%
    04:00 +36°C° 0 mm 5 m/s 719 mmHg 27%
    05:00 +35°C° 0 mm 4 m/s 719 mmHg 27%
    06:00 +36°C° 0 mm 4 m/s 720 mmHg 26%
    07:00 +37°C° 0 mm 4 m/s 720 mmHg 25%
    08:00 +38°C° 0 mm 4 m/s 721 mmHg 24%
    09:00 +40°C° 0 mm 4 m/s 721 mmHg 22%
    10:00 +41°C° 0 mm 4 m/s 721 mmHg 20%
    11:00 +42°C° 0 mm 3 m/s 721 mmHg 18%
    12:00 +43°C° 0 mm 3 m/s 720 mmHg 16%
    13:00 +43°C° 0 mm 2 m/s 719 mmHg 14%
    14:00 +45°C° 0 mm 2 m/s 718 mmHg 12%
    15:00 +45°C° 0 mm 2 m/s 718 mmHg 12%
    16:00 +45°C° 0 mm 2 m/s 718 mmHg 12%
    17:00 +45°C° 0 mm 2 m/s 718 mmHg 12%
    18:00 +44°C° 0 mm 3 m/s 718 mmHg 13%
    19:00 +44°C° 0 mm 3 m/s 719 mmHg 13%
    20:00 +43°C° 0 mm 4 m/s 720 mmHg 14%
    21:00 +43°C° 0 mm 3 m/s 720 mmHg 15%
    22:00 +42°C° 0 mm 3 m/s 720 mmHg 15%
    23:00 +41°C° 0 mm 2 m/s 720 mmHg 15%

    27 Aprilie, Sâmbătă

    Timp Temperatura Precipitaţii Vânt Presiune Umiditate
    00:00 +40°C° 0 mm 3 m/s 719 mmHg 16%
    01:00 +39°C° 0 mm 3 m/s 719 mmHg 18%
    02:00 +38°C° 0 mm 3 m/s 718 mmHg 19%
    03:00 +37°C° 0 mm 3 m/s 718 mmHg 22%
    04:00 +36°C° 0 mm 3 m/s 718 mmHg 25%
    05:00 +36°C° 0 mm 2 m/s 718 mmHg 28%
    06:00 +37°C° 0 mm 3 m/s 719 mmHg 28%
    07:00 +38°C° 0 mm 4 m/s 720 mmHg 28%
    08:00 +40°C° 0 mm 4 m/s 721 mmHg 28%
    09:00 +40°C° 0 mm 3 m/s 721 mmHg 25%
    10:00 +43°C° 0 mm 3 m/s 720 mmHg 21%
    11:00 +43°C° 0 mm 2 m/s 720 mmHg 18%
    12:00 +43°C° 0 mm 2 m/s 719 mmHg 17%
    13:00 +45°C° 0 mm 2 m/s 719 mmHg 15%
    14:00 +44°C° 0 mm 1 m/s 718 mmHg 14%
    15:00 +44°C° 0 mm 1 m/s 717 mmHg 13%
    16:00 +44°C° 0 mm 1 m/s 717 mmHg 13%
    17:00 +44°C° 0 mm 1 m/s 717 mmHg 13%
    18:00 +45°C° 0 mm 2 m/s 718 mmHg 14%
    19:00 +43°C° 0 mm 2 m/s 718 mmHg 14%
    20:00 +43°C° 0 mm 3 m/s 719 mmHg 15%
    21:00 +42°C° 0 mm 2 m/s 719 mmHg 15%
    22:00 +41°C° 0 mm 2 m/s 719 mmHg 16%
    23:00 +40°C° 0 mm 1 m/s 719 mmHg 17%
    Arată mai mult